| time (UTC) | temp F | wind direction | speed MPH | gust MPH | rain 1hr in | rain 24hr in | rain mn in | humidity % | barometer mb |
| 20260902194503 | 81 | 183 | 6.0 | 12.0 | 0.00 | 0.62 | 0.62 | 50 | 1015.7 |
| 20260902194003 | 80 | 190 | 6.0 | 12.0 | 0.00 | 0.62 | 0.62 | 50 | 1015.7 |
| 20260902193503 | 80 | 181 | 6.0 | 12.0 | 0.00 | 0.62 | 0.62 | 52 | 1015.7 |
| 20260902193003 | 80 | 189 | 5.0 | 12.0 | 0.00 | 0.62 | 0.62 | 52 | 1015.5 |
| 20260902192714 | 80 | 205 | 4.0 | 12.0 | 0.00 | 0.62 | 0.62 | 52 | 1015.6 |
| 20260902192004 | 80 | 195 | 5.0 | 15.0 | 0.00 | 0.62 | 0.62 | 53 | 1015.6 |
| 20260902191503 | 80 | 196 | 6.0 | 15.0 | 0.00 | 0.62 | 0.62 | 52 | 1015.5 |
| 20260902191003 | 80 | 200 | 6.0 | 12.0 | 0.00 | 0.62 | 0.62 | 52 | 1015.6 |
| 20260902190503 | 80 | 188 | 6.0 | 12.0 | 0.00 | 0.62 | 0.62 | 51 | 1015.5 |
| 20260902190003 | 80 | 173 | 4.0 | 10.0 | 0.00 | 0.62 | 0.62 | 52 | 1015.3 |
| 20260902185503 | 80 | 149 | 4.0 | 9.0 | 0.00 | 0.62 | 0.62 | 53 | 1015.2 |
| 20260902185213 | 80 | 149 | 4.0 | 9.0 | 0.00 | 0.62 | 0.62 | 53 | 1015.0 |
| 20260902184503 | 80 | 169 | 4.0 | 10.0 | 0.00 | 0.62 | 0.62 | 51 | 1015.2 |
| 20260902184213 | 80 | 180 | 4.0 | 10.0 | 0.00 | 0.62 | 0.62 | 51 | 1015.1 |
| 20260902183503 | 81 | 177 | 4.0 | 9.0 | 0.00 | 0.62 | 0.62 | 50 | 1015.4 |
| 20260902183003 | 81 | 179 | 4.0 | 10.0 | 0.00 | 0.62 | 0.62 | 49 | 1015.5 |
| 20260902182713 | 81 | 178 | 4.0 | 10.0 | 0.00 | 0.62 | 0.62 | 49 | 1015.6 |
| 20260902182004 | 81 | 200 | 3.0 | 7.0 | 0.00 | 0.62 | 0.62 | 49 | 1015.7 |
| 20260902181714 | 82 | 239 | 2.0 | 6.0 | 0.00 | 0.62 | 0.62 | 49 | 1016.0 |
| 20260902181003 | 81 | 223 | 2.0 | 8.0 | 0.00 | 0.62 | 0.62 | 49 | 1016.2 |
| 20260902180713 | 81 | 242 | 3.0 | 13.0 | 0.00 | 0.62 | 0.62 | 51 | 1016.4 |
| 20260902180006 | 81 | 251 | 5.0 | 13.0 | 0.00 | 0.62 | 0.62 | 48 | 1016.4 |
| 20260902175503 | 82 | 216 | 5.0 | 13.0 | 0.00 | 0.62 | 0.62 | 47 | 1016.5 |
| 20260902175003 | 82 | 185 | 5.0 | 13.0 | 0.00 | 0.62 | 0.62 | 47 | 1016.5 |
| 20260902174713 | 82 | 182 | 5.0 | 13.0 | 0.00 | 0.62 | 0.62 | 47 | 1016.3 |
| 20260902174212 | 82 | 175 | 5.0 | 11.0 | 0.00 | 0.62 | 0.62 | 48 | 1016.3 |
| 20260902173503 | 82 | 186 | 5.0 | 11.0 | 0.00 | 0.62 | 0.62 | 48 | 1016.2 |
| 20260902173212 | 82 | 175 | 5.0 | 11.0 | 0.00 | 0.62 | 0.62 | 47 | 1016.1 |
| 20260902172503 | 82 | 157 | 5.0 | 10.0 | 0.00 | 0.62 | 0.62 | 47 | 1016.1 |
| 20260902172003 | 82 | 181 | 4.0 | 10.0 | 0.00 | 0.62 | 0.62 | 47 | 1016.2 |
| 20260902171503 | 81 | 171 | 5.0 | 11.0 | 0.00 | 0.62 | 0.62 | 48 | 1016.1 |
| 20260902171003 | 81 | 168 | 5.0 | 11.0 | 0.00 | 0.62 | 0.62 | 48 | 1016.1 |
| 20260902170503 | 81 | 198 | 5.0 | 10.0 | 0.00 | 0.62 | 0.62 | 46 | 1016.1 |
| 20260902170003 | 81 | 210 | 4.0 | 10.0 | 0.00 | 0.62 | 0.62 | 46 | 1016.3 |
| 20260902165503 | 81 | 187 | 4.0 | 11.0 | 0.00 | 0.62 | 0.62 | 47 | 1016.4 |
| 20260902165003 | 80 | 182 | 5.0 | 11.0 | 0.00 | 0.62 | 0.62 | 49 | 1016.2 |
| 20260902164503 | 80 | 214 | 5.0 | 10.0 | 0.00 | 0.62 | 0.62 | 47 | 1016.4 |
| 20260902164003 | 81 | 198 | 5.0 | 10.0 | 0.00 | 0.62 | 0.62 | 48 | 1016.4 |
| 20260902163503 | 80 | 198 | 5.0 | 10.0 | 0.00 | 0.62 | 0.62 | 49 | 1016.5 |
| 20260902163003 | 80 | 213 | 4.0 | 10.0 | 0.00 | 0.62 | 0.62 | 47 | 1016.5 |
| 20260902162713 | 80 | 207 | 4.0 | 11.0 | 0.00 | 0.62 | 0.62 | 48 | 1016.4 |
| 20260902162004 | 79 | 204 | 5.0 | 11.0 | 0.00 | 0.62 | 0.62 | 49 | 1016.5 |
| 20260902161503 | 79 | 200 | 5.0 | 11.0 | 0.00 | 0.62 | 0.62 | 49 | 1016.5 |
| 20260902161003 | 79 | 197 | 5.0 | 11.0 | 0.00 | 0.62 | 0.62 | 49 | 1016.7 |
| 20260902160713 | 79 | 205 | 4.0 | 11.0 | 0.00 | 0.62 | 0.62 | 51 | 1016.6 |
| 20260902160004 | 78 | 205 | 4.0 | 11.0 | 0.00 | 0.62 | 0.62 | 52 | 1016.7 |
| 20260902155503 | 78 | 197 | 5.0 | 11.0 | 0.00 | 0.63 | 0.62 | 51 | 1016.7 |
| 20260902155003 | 78 | 190 | 5.0 | 12.0 | 0.00 | 0.63 | 0.62 | 52 | 1016.6 |
| 20260902154503 | 77 | 191 | 5.0 | 12.0 | 0.00 | 0.63 | 0.62 | 54 | 1016.6 |
| 20260902154003 | 76 | 201 | 4.0 | 12.0 | 0.00 | 0.63 | 0.62 | 54 | 1016.6 |
| 20260902153503 | 76 | 202 | 4.0 | 12.0 | 0.00 | 0.63 | 0.62 | 56 | 1016.5 |
| 20260902153003 | 75 | 194 | 4.0 | 10.0 | 0.00 | 0.63 | 0.62 | 56 | 1016.4 |
| 20260902152503 | 75 | 192 | 3.0 | 10.0 | 0.00 | 0.63 | 0.62 | 57 | 1016.4 |
| 20260902152003 | 74 | 203 | 3.0 | 7.0 | 0.00 | 0.63 | 0.62 | 58 | 1016.4 |
| 20260902151503 | 74 | 200 | 4.0 | 10.0 | 0.00 | 0.63 | 0.62 | 60 | 1016.6 |
| 20260902151003 | 73 | 195 | 4.0 | 10.0 | 0.00 | 0.63 | 0.62 | 60 | 1016.5 |
| 20260902150503 | 73 | 192 | 3.0 | 8.0 | 0.00 | 0.63 | 0.62 | 62 | 1016.4 |
| 20260902150213 | 73 | 194 | 3.0 | 8.0 | 0.01 | 0.63 | 0.62 | 63 | 1016.3 |
| 20260902145503 | 72 | 202 | 4.0 | 8.0 | 0.02 | 0.63 | 0.62 | 64 | 1016.2 |
| 20260902145003 | 71 | 206 | 3.0 | 6.0 | 0.03 | 0.63 | 0.62 | 65 | 1016.2 |
| 20260902144503 | 70 | 205 | 4.0 | 10.0 | 0.03 | 0.63 | 0.62 | 65 | 1016.5 |
| 20260902144003 | 70 | 208 | 4.0 | 10.0 | 0.03 | 0.63 | 0.62 | 64 | 1016.6 |
| 20260902143503 | 69 | 225 | 3.0 | 9.0 | 0.03 | 0.63 | 0.62 | 63 | 1016.9 |
| 20260902143003 | 69 | 239 | 3.0 | 10.0 | 0.09 | 0.63 | 0.62 | 63 | 1017.0 |
| 20260902142503 | 69 | 242 | 3.0 | 10.0 | 0.29 | 0.63 | 0.62 | 63 | 1017.0 |
| 20260902142003 | 68 | 253 | 2.0 | 7.0 | 0.53 | 0.63 | 0.62 | 64 | 1016.9 |
| 20260902141503 | 68 | 243 | 3.0 | 7.0 | 0.61 | 0.63 | 0.62 | 64 | 1016.6 |
| 20260902141213 | 68 | 224 | 3.0 | 6.0 | 0.61 | 0.63 | 0.62 | 63 | 1016.7 |
| 20260902140503 | 67 | 189 | 3.0 | 7.0 | 0.62 | 0.63 | 0.62 | 62 | 1016.6 |
| 20260902140003 | 67 | 186 | 3.0 | 7.0 | 0.61 | 0.62 | 0.61 | 62 | 1017.1 |
| 20260902135714 | 67 | 207 | 3.0 | 9.0 | 0.60 | 0.61 | 0.60 | 61 | 1017.4 |
| 20260902135003 | 67 | 255 | 6.0 | 15.0 | 0.59 | 0.60 | 0.59 | 61 | 1017.5 |
| 20260902134503 | 67 | 257 | 6.0 | 15.0 | 0.59 | 0.60 | 0.59 | 61 | 1017.7 |
| 20260902134003 | 67 | 264 | 5.0 | 14.0 | 0.59 | 0.60 | 0.59 | 61 | 1017.8 |
| 20260902133503 | 68 | 265 | 9.0 | 25.0 | 0.59 | 0.60 | 0.59 | 61 | 1018.4 |
| 20260902133003 | 68 | 262 | 12.0 | 25.0 | 0.53 | 0.54 | 0.54 | 61 | 1018.6 |
| 20260902132503 | 70 | 252 | 9.0 | 25.0 | 0.33 | 0.34 | 0.33 | 61 | 1018.4 |
| 20260902132003 | 71 | 232 | 5.0 | 24.0 | 0.09 | 0.10 | 0.09 | 62 | 1018.1 |
| 20260902131503 | 71 | 201 | 4.0 | 10.0 | 0.01 | 0.02 | 0.01 | 61 | 1017.6 |
| 20260902131003 | 71 | 195 | 4.0 | 10.0 | 0.00 | 0.01 | 0.00 | 61 | 1017.0 |
| 20260902130503 | 71 | 198 | 4.0 | 9.0 | 0.00 | 0.01 | 0.00 | 61 | 1017.5 |
| 20260902130003 | 71 | 194 | 4.0 | 8.0 | 0.00 | 0.01 | 0.00 | 61 | 1017.3 |
| 20260902125714 | 71 | 188 | 3.0 | 7.0 | 0.00 | 0.01 | 0.00 | 61 | 1017.0 |
| 20260902125003 | 71 | 171 | 4.0 | 7.0 | 0.00 | 0.01 | 0.00 | 61 | 1016.7 |
| 20260902124713 | 71 | 170 | 4.0 | 7.0 | 0.00 | 0.01 | 0.00 | 61 | 1016.8 |
| 20260902124003 | 71 | 191 | 4.0 | 7.0 | 0.00 | 0.01 | 0.00 | 61 | 1016.9 |
| 20260902123713 | 71 | 195 | 4.0 | 7.0 | 0.00 | 0.01 | 0.00 | 62 | 1017.1 |
| 20260902123003 | 71 | 218 | 3.0 | 7.0 | 0.00 | 0.01 | 0.00 | 62 | 1017.2 |
| 20260902122713 | 71 | 243 | 2.0 | 7.0 | 0.00 | 0.01 | 0.00 | 62 | 1017.3 |
| 20260902122212 | 71 | 224 | 3.0 | 6.0 | 0.00 | 0.01 | 0.00 | 63 | 1017.0 |
| 20260902121503 | 71 | 174 | 4.0 | 9.0 | 0.00 | 0.01 | 0.00 | 63 | 1015.8 |
| 20260902121003 | 71 | 177 | 3.0 | 9.0 | 0.00 | 0.01 | 0.00 | 63 | 1015.8 |
| 20260902120713 | 71 | 178 | 3.0 | 9.0 | 0.00 | 0.01 | 0.00 | 63 | 1015.8 |
| 20260902120003 | 71 | 190 | 2.0 | 5.0 | 0.00 | 0.01 | 0.00 | 64 | 1016.1 |
| 20260902115503 | 70 | 204 | 1.0 | 5.0 | 0.00 | 0.01 | 0.00 | 64 | 1016.2 |
| 20260902115214 | 70 | 207 | 2.0 | 6.0 | 0.00 | 0.01 | 0.00 | 64 | 1016.2 |
| 20260902114503 | 70 | 189 | 3.0 | 7.0 | 0.00 | 0.01 | 0.00 | 64 | 1015.7 |
| 20260902114214 | 70 | 183 | 2.0 | 7.0 | 0.00 | 0.01 | 0.00 | 64 | 1015.6 |
| 20260902113713 | 70 | 176 | 2.0 | 7.0 | 0.00 | 0.01 | 0.00 | 64 | 1015.8 |
| 20260902113003 | 70 | 186 | 2.0 | 7.0 | 0.00 | 0.01 | 0.00 | 64 | 1015.8 |
| 20260902112503 | 70 | 201 | 1.0 | 5.0 | 0.00 | 0.01 | 0.00 | 64 | 1015.5 |
| 20260902112003 | 70 | 225 | 1.0 | 5.0 | 0.00 | 0.01 | 0.00 | 64 | 1015.6 |
| 20260902111503 | 70 | 238 | 2.0 | 5.0 | 0.00 | 0.01 | 0.00 | 65 | 1015.7 |
| 20260902111003 | 70 | 236 | 1.0 | 4.0 | 0.00 | 0.01 | 0.00 | 65 | 1015.9 |
| 20260902110503 | 70 | 238 | 1.0 | 3.0 | 0.00 | 0.01 | 0.00 | 65 | 1015.9 |
| 20260902110005 | 70 | 236 | 1.0 | 3.0 | 0.00 | 0.01 | 0.00 | 64 | 1016.0 |
| 20260902105503 | 70 | 232 | 0.0 | 2.0 | 0.00 | 0.01 | 0.00 | 64 | 1015.9 |
| 20260902105003 | 70 | 231 | 0.0 | 2.0 | 0.00 | 0.01 | 0.00 | 64 | 1016.0 |
| 20260902104503 | 70 | 231 | 0.0 | 2.0 | 0.00 | 0.01 | 0.00 | 64 | 1015.9 |
| 20260902104003 | 70 | 231 | 0.0 | 2.0 | 0.00 | 0.01 | 0.00 | 64 | 1016.0 |
| 20260902103503 | 70 | 232 | 1.0 | 3.0 | 0.00 | 0.01 | 0.00 | 64 | 1015.9 |
| 20260902103003 | 69 | 233 | 1.0 | 3.0 | 0.00 | 0.01 | 0.00 | 64 | 1015.6 |
| 20260902102503 | 70 | 235 | 0.0 | 2.0 | 0.00 | 0.01 | 0.00 | 64 | 1015.6 |
| 20260902102003 | 70 | 0 | 0.0 | 0.0 | 0.00 | 0.01 | 0.00 | 64 | 1015.6 |
| 20260902101503 | 70 | 235 | 0.0 | 1.0 | 0.00 | 0.01 | 0.00 | 64 | 1015.7 |
| 20260902101003 | 70 | 235 | 0.0 | 2.0 | 0.00 | 0.01 | 0.00 | 64 | 1015.7 |
| 20260902100712 | 70 | 235 | 0.0 | 2.0 | 0.00 | 0.01 | 0.00 | 63 | 1015.7 |
| 20260902100213 | 70 | 235 | 0.0 | 2.0 | 0.00 | 0.01 | 0.00 | 63 | 1015.8 |
| 20260902095503 | 70 | 236 | 1.0 | 3.0 | 0.00 | 0.01 | 0.00 | 64 | 1016.0 |
| 20260902095003 | 70 | 240 | 0.0 | 3.0 | 0.00 | 0.01 | 0.00 | 64 | 1016.2 |
| 20260902094503 | 70 | 255 | 0.0 | 4.0 | 0.00 | 0.01 | 0.00 | 64 | 1016.3 |
| 20260902094003 | 70 | 255 | 0.0 | 4.0 | 0.00 | 0.01 | 0.00 | 64 | 1016.3 |
| 20260902093714 | 70 | 227 | 0.0 | 4.0 | 0.00 | 0.01 | 0.00 | 64 | 1016.4 |
| 20260902093213 | 70 | 209 | 1.0 | 3.0 | 0.00 | 0.01 | 0.00 | 64 | 1016.3 |
| 20260902092503 | 71 | 221 | 0.0 | 3.0 | 0.00 | 0.01 | 0.00 | 63 | 1016.1 |
| 20260902092213 | 71 | 235 | 0.0 | 2.0 | 0.00 | 0.03 | 0.00 | 63 | 1016.3 |
| 20260902091503 | 71 | 240 | 0.0 | 1.0 | 0.00 | 0.03 | 0.00 | 63 | 1016.2 |
| 20260902091213 | 71 | 238 | 1.0 | 4.0 | 0.00 | 0.03 | 0.00 | 63 | 1016.2 |
| 20260902090503 | 71 | 230 | 1.0 | 4.0 | 0.00 | 0.03 | 0.00 | 63 | 1016.2 |
| 20260902090213 | 71 | 232 | 1.0 | 4.0 | 0.00 | 0.03 | 0.00 | 63 | 1016.2 |
| 20260902085503 | 71 | 201 | 2.0 | 7.0 | 0.00 | 0.03 | 0.00 | 63 | 1016.3 |
| 20260902085003 | 71 | 192 | 2.0 | 7.0 | 0.00 | 0.03 | 0.00 | 63 | 1016.3 |
| 20260902084714 | 71 | 192 | 2.0 | 5.0 | 0.00 | 0.03 | 0.00 | 63 | 1016.6 |
| 20260902084003 | 71 | 203 | 2.0 | 7.0 | 0.00 | 0.03 | 0.00 | 63 | 1016.5 |
| 20260902083503 | 71 | 235 | 2.0 | 7.0 | 0.00 | 0.03 | 0.00 | 63 | 1016.7 |
| 20260902083003 | 71 | 249 | 2.0 | 6.0 | 0.00 | 0.03 | 0.00 | 63 | 1016.7 |
| 20260902082714 | 71 | 242 | 2.0 | 6.0 | 0.00 | 0.03 | 0.00 | 64 | 1016.7 |
| 20260902082003 | 71 | 219 | 1.0 | 6.0 | 0.00 | 0.03 | 0.00 | 64 | 1016.7 |
| 20260902081503 | 71 | 210 | 1.0 | 4.0 | 0.00 | 0.03 | 0.00 | 64 | 1016.6 |
| 20260902081003 | 71 | 223 | 2.0 | 6.0 | 0.00 | 0.03 | 0.00 | 63 | 1016.5 |
| 20260902080503 | 71 | 241 | 2.0 | 8.0 | 0.00 | 0.03 | 0.00 | 64 | 1016.4 |
| 20260902080004 | 71 | 229 | 2.0 | 8.0 | 0.00 | 0.03 | 0.00 | 64 | 1016.6 |
| 20260902075503 | 71 | 195 | 2.0 | 5.0 | 0.00 | 0.03 | 0.00 | 64 | 1016.6 |
| 20260902075003 | 71 | 195 | 2.0 | 5.0 | 0.00 | 0.03 | 0.00 | 63 | 1016.6 |
| 20260902074503 | 71 | 210 | 2.0 | 4.0 | 0.00 | 0.03 | 0.00 | 64 | 1016.7 |
| 20260902074213 | 71 | 228 | 2.0 | 4.0 | 0.00 | 0.03 | 0.00 | 64 | 1016.8 |
| 20260902073503 | 71 | 268 | 1.0 | 4.0 | 0.00 | 0.03 | 0.00 | 64 | 1016.8 |
| 20260902073003 | 71 | 269 | 1.0 | 3.0 | 0.00 | 0.03 | 0.00 | 64 | 1016.8 |
| 20260902072503 | 71 | 249 | 1.0 | 4.0 | 0.00 | 0.03 | 0.00 | 64 | 1016.7 |
| 20260902072003 | 71 | 207 | 2.0 | 5.0 | 0.00 | 0.03 | 0.00 | 64 | 1016.7 |
| 20260902071503 | 72 | 197 | 3.0 | 6.0 | 0.00 | 0.03 | 0.00 | 64 | 1016.8 |
| 20260902071003 | 72 | 190 | 4.0 | 9.0 | 0.00 | 0.03 | 0.00 | 64 | 1016.7 |
| 20260902070503 | 72 | 181 | 4.0 | 9.0 | 0.00 | 0.03 | 0.00 | 64 | 1016.7 |
| 20260902070003 | 72 | 176 | 4.0 | 9.0 | 0.00 | 0.03 | 0.00 | 64 | 1016.6 |
| 20260902065503 | 72 | 169 | 4.0 | 10.0 | 0.00 | 0.03 | 0.00 | 64 | 1016.8 |
| 20260902065003 | 71 | 176 | 3.0 | 10.0 | 0.00 | 0.03 | 0.00 | 64 | 1016.8 |
| 20260902064503 | 71 | 201 | 2.0 | 5.0 | 0.00 | 0.03 | 0.00 | 65 | 1016.8 |
| 20260902064212 | 71 | 210 | 2.0 | 5.0 | 0.00 | 0.03 | 0.00 | 65 | 1016.8 |
| 20260902063503 | 71 | 218 | 2.0 | 5.0 | 0.00 | 0.03 | 0.00 | 65 | 1016.9 |
| 20260902063003 | 71 | 212 | 2.0 | 5.0 | 0.00 | 0.03 | 0.00 | 64 | 1017.0 |
| 20260902062503 | 71 | 205 | 2.0 | 6.0 | 0.00 | 0.03 | 0.00 | 64 | 1017.0 |
| 20260902062003 | 71 | 206 | 2.0 | 6.0 | 0.00 | 0.03 | 0.00 | 64 | 1017.1 |
| 20260902061003 | 71 | 218 | 1.0 | 5.0 | 0.00 | 0.03 | 0.00 | 64 | 1017.2 |
| 20260902060503 | 71 | 206 | 0.0 | 5.0 | 0.00 | 0.03 | 0.00 | 64 | 1017.3 |
| 20260902060003 | 71 | 205 | 1.0 | 5.0 | 0.00 | 0.03 | 0.00 | 64 | 1017.4 |
| 20260902055503 | 71 | 214 | 2.0 | 5.0 | 0.00 | 0.03 | 0.00 | 64 | 1017.4 |
| 20260902055003 | 71 | 220 | 1.0 | 3.0 | 0.00 | 0.09 | 0.00 | 64 | 1017.5 |
| 20260902054503 | 71 | 222 | 1.0 | 3.0 | 0.00 | 0.11 | 0.00 | 64 | 1017.3 |
| 20260902054003 | 71 | 218 | 1.0 | 3.0 | 0.00 | 0.12 | 0.00 | 64 | 1017.2 |
| 20260902053713 | 71 | 209 | 1.0 | 3.0 | 0.00 | 0.12 | 0.00 | 64 | 1017.2 |
| 20260902053003 | 71 | 184 | 1.0 | 3.0 | 0.00 | 0.12 | 0.00 | 64 | 1017.3 |
| 20260902052503 | 71 | 183 | 1.0 | 3.0 | 0.00 | 0.12 | 0.00 | 64 | 1017.3 |
| 20260902052003 | 71 | 178 | 1.0 | 3.0 | 0.00 | 0.12 | 0.00 | 64 | 1017.2 |
| 20260902051503 | 71 | 174 | 1.0 | 3.0 | 0.00 | 0.12 | 0.00 | 64 | 1017.2 |
| 20260902051003 | 71 | 167 | 1.0 | 5.0 | 0.00 | 0.12 | 0.00 | 64 | 1017.2 |
| 20260902050712 | 71 | 165 | 1.0 | 5.0 | 0.00 | 0.12 | 0.00 | 64 | 1017.2 |
| 20260902050006 | 71 | 157 | 2.0 | 7.0 | 0.00 | 0.12 | 0.00 | 64 | 1017.0 |
| 20260902045503 | 71 | 161 | 2.0 | 7.0 | 0.00 | 0.12 | 0.00 | 64 | 1017.2 |
| 20260902045003 | 71 | 171 | 0.0 | 5.0 | 0.00 | 0.12 | 0.00 | 64 | 1017.2 |
| 20260902044503 | 71 | 0 | 0.0 | 0.0 | 0.00 | 0.12 | 0.00 | 64 | 1017.0 |
| 20260902044003 | 71 | 0 | 0.0 | 0.0 | 0.00 | 0.12 | 0.00 | 64 | 1017.1 |
| 20260902043503 | 71 | 0 | 0.0 | 0.0 | 0.00 | 0.12 | 0.00 | 64 | 1017.0 |
| 20260902043003 | 71 | 0 | 0.0 | 0.0 | 0.00 | 0.12 | 0.00 | 64 | 1017.0 |
| 20260902042503 | 71 | 0 | 0.0 | 0.0 | 0.00 | 0.12 | 0.00 | 64 | 1017.0 |
| 20260902042003 | 71 | 326 | 0.0 | 3.0 | 0.00 | 0.12 | 0.00 | 64 | 1016.9 |
| 20260902041504 | 71 | 327 | 1.0 | 3.0 | 0.00 | 0.12 | 0.00 | 64 | 1017.0 |
| 20260902041213 | 71 | 328 | 0.0 | 3.0 | 0.00 | 0.12 | 0.00 | 64 | 1016.9 |
| 20260902040503 | 71 | 329 | 1.0 | 3.0 | 0.00 | 0.12 | 0.00 | 64 | 1016.9 |
| 20260902040003 | 71 | 341 | 1.0 | 4.0 | 0.00 | 0.12 | 0.00 | 64 | 1016.8 |
| 20260902035714 | 71 | 344 | 1.0 | 4.0 | 0.00 | 0.12 | 0.12 | 64 | 1016.8 |
| 20260902035213 | 71 | 355 | 0.0 | 4.0 | 0.00 | 0.12 | 0.12 | 64 | 1016.7 |
| 20260902034712 | 71 | 0 | 0.0 | 0.0 | 0.00 | 0.12 | 0.12 | 64 | 1016.7 |
| 20260902034213 | 71 | 0 | 0.0 | 0.0 | 0.00 | 0.12 | 0.12 | 64 | 1016.7 |
| 20260902033503 | 71 | 0 | 0.0 | 0.0 | 0.00 | 0.12 | 0.12 | 64 | 1016.6 |
| 20260902033003 | 71 | 0 | 0.0 | 0.0 | 0.00 | 0.12 | 0.12 | 64 | 1016.7 |
| 20260902032714 | 71 | 0 | 0.0 | 0.0 | 0.00 | 0.12 | 0.12 | 64 | 1016.7 |
| 20260902032003 | 71 | 0 | 0.0 | 0.0 | 0.00 | 0.12 | 0.12 | 64 | 1016.7 |
| 20260902031503 | 71 | 0 | 0.0 | 0.0 | 0.00 | 0.12 | 0.12 | 64 | 1016.8 |
| 20260902031213 | 71 | 0 | 0.0 | 0.0 | 0.00 | 0.12 | 0.12 | 64 | 1016.7 |
| 20260902030714 | 71 | 0 | 0.0 | 0.0 | 0.00 | 0.12 | 0.12 | 64 | 1016.7 |
| 20260902030003 | 71 | 0 | 0.0 | 0.0 | 0.00 | 0.12 | 0.12 | 64 | 1017.0 |
| 20260902025503 | 71 | 0 | 0.0 | 0.0 | 0.00 | 0.12 | 0.12 | 64 | 1016.9 |
| 20260902025003 | 71 | 0 | 0.0 | 0.0 | 0.00 | 0.12 | 0.12 | 64 | 1016.9 |
| 20260902024503 | 71 | 0 | 0.0 | 0.0 | 0.00 | 0.12 | 0.12 | 63 | 1016.8 |
| 20260902024003 | 71 | 0 | 0.0 | 0.0 | 0.00 | 0.12 | 0.12 | 63 | 1016.8 |
| 20260902023503 | 71 | 0 | 0.0 | 0.0 | 0.00 | 0.12 | 0.12 | 63 | 1016.9 |
| 20260902023003 | 71 | 0 | 0.0 | 0.0 | 0.00 | 0.12 | 0.12 | 63 | 1016.9 |
| 20260902022503 | 72 | 0 | 0.0 | 0.0 | 0.00 | 0.12 | 0.12 | 64 | 1017.0 |
| 20260902022003 | 72 | 0 | 0.0 | 0.0 | 0.00 | 0.12 | 0.12 | 64 | 1017.1 |
| 20260902021503 | 71 | 0 | 0.0 | 0.0 | 0.00 | 0.12 | 0.12 | 64 | 1017.0 |
| 20260902021003 | 71 | 0 | 0.0 | 0.0 | 0.00 | 0.12 | 0.12 | 64 | 1017.4 |
| 20260902020503 | 71 | 0 | 0.0 | 0.0 | 0.00 | 0.12 | 0.12 | 63 | 1017.0 |
| 20260902020003 | 71 | 0 | 0.0 | 0.0 | 0.00 | 0.12 | 0.12 | 63 | 1016.9 |
| 20260902015503 | 71 | 0 | 0.0 | 0.0 | 0.00 | 0.12 | 0.12 | 63 | 1016.9 |
| 20260902015003 | 71 | 0 | 0.0 | 0.0 | 0.00 | 0.12 | 0.12 | 63 | 1017.0 |
| 20260902014503 | 71 | 0 | 0.0 | 0.0 | 0.00 | 0.12 | 0.12 | 63 | 1016.9 |
| 20260902014003 | 71 | 0 | 0.0 | 0.0 | 0.00 | 0.13 | 0.12 | 63 | 1016.8 |
| 20260902013713 | 71 | 0 | 0.0 | 0.0 | 0.00 | 0.13 | 0.12 | 63 | 1016.8 |
| 20260902013003 | 71 | 0 | 0.0 | 0.0 | 0.00 | 0.13 | 0.12 | 63 | 1016.8 |
| 20260902012503 | 71 | 0 | 0.0 | 0.0 | 0.00 | 0.13 | 0.12 | 63 | 1016.7 |
| 20260902012003 | 71 | 279 | 1.0 | 3.0 | 0.00 | 0.13 | 0.12 | 62 | 1016.7 |
| 20260902011503 | 71 | 278 | 2.0 | 3.0 | 0.00 | 0.13 | 0.12 | 62 | 1016.6 |
| 20260902011004 | 71 | 278 | 2.0 | 3.0 | 0.00 | 0.13 | 0.12 | 62 | 1016.5 |
| 20260902010503 | 71 | 279 | 2.0 | 3.0 | 0.00 | 0.13 | 0.12 | 62 | 1016.5 |
| 20260902010216 | 72 | 279 | 2.0 | 3.0 | 0.00 | 0.13 | 0.12 | 62 | 1016.4 |
| 20260902005503 | 72 | 298 | 2.0 | 4.0 | 0.00 | 0.13 | 0.12 | 62 | 1016.4 |
| 20260902005003 | 72 | 314 | 1.0 | 3.0 | 0.00 | 0.13 | 0.12 | 61 | 1016.2 |
| 20260902004713 | 72 | 314 | 1.0 | 3.0 | 0.00 | 0.13 | 0.12 | 61 | 1016.2 |
| 20260902004214 | 72 | 314 | 1.0 | 3.0 | 0.00 | 0.13 | 0.12 | 61 | 1016.1 |
| 20260902003503 | 72 | 315 | 1.0 | 4.0 | 0.00 | 0.13 | 0.12 | 61 | 1016.0 |
| 20260902003003 | 72 | 321 | 1.0 | 4.0 | 0.00 | 0.13 | 0.12 | 61 | 1015.8 |
| 20260902002503 | 72 | 331 | 1.0 | 3.0 | 0.00 | 0.13 | 0.12 | 61 | 1015.7 |
| 20260902002003 | 72 | 328 | 1.0 | 4.0 | 0.00 | 0.13 | 0.12 | 61 | 1015.6 |
| 20260902001503 | 72 | 314 | 2.0 | 4.0 | 0.00 | 0.13 | 0.12 | 61 | 1015.7 |
| 20260902001003 | 72 | 306 | 2.0 | 3.0 | 0.00 | 0.13 | 0.12 | 61 | 1015.5 |
| 20260902000713 | 72 | 305 | 2.0 | 3.0 | 0.00 | 0.13 | 0.12 | 62 | 1015.7 |
| 20260902000003 | 73 | 304 | 2.0 | 4.0 | 0.00 | 0.13 | 0.12 | 62 | 1015.4 |
| 20260901235503 | 73 | 306 | 1.0 | 4.0 | 0.00 | 0.13 | 0.12 | 61 | 1015.4 |
| 20260901235003 | 73 | 306 | 1.0 | 3.0 | 0.00 | 0.13 | 0.12 | 61 | 1015.4 |
| 20260901234503 | 73 | 311 | 2.0 | 3.0 | 0.00 | 0.13 | 0.12 | 61 | 1015.4 |
| 20260901234214 | 74 | 315 | 2.0 | 4.0 | 0.00 | 0.13 | 0.12 | 61 | 1015.4 |
| 20260901233503 | 74 | 322 | 1.0 | 4.0 | 0.00 | 0.13 | 0.12 | 61 | 1015.5 |
| 20260901233003 | 74 | 292 | 1.0 | 4.0 | 0.00 | 0.13 | 0.12 | 61 | 1015.6 |
| 20260901232712 | 74 | 294 | 1.0 | 4.0 | 0.00 | 0.13 | 0.12 | 61 | 1015.6 |
| 20260901232003 | 75 | 309 | 2.0 | 7.0 | 0.00 | 0.13 | 0.12 | 61 | 1015.7 |
| 20260901231503 | 75 | 318 | 1.0 | 7.0 | 0.00 | 0.13 | 0.12 | 61 | 1015.6 |
| 20260901231003 | 75 | 315 | 0.0 | 2.0 | 0.00 | 0.13 | 0.12 | 60 | 1015.7 |
| 20260901230503 | 76 | 315 | 0.0 | 2.0 | 0.00 | 0.13 | 0.12 | 60 | 1015.6 |
| 20260901230003 | 76 | 315 | 0.0 | 1.0 | 0.00 | 0.13 | 0.12 | 59 | 1015.6 |
| 20260901225503 | 76 | 315 | 0.0 | 1.0 | 0.00 | 0.13 | 0.12 | 59 | 1015.6 |
| 20260901225003 | 77 | 355 | 0.0 | 3.0 | 0.00 | 0.13 | 0.12 | 59 | 1015.6 |
| 20260901224503 | 77 | 348 | 1.0 | 4.0 | 0.00 | 0.13 | 0.12 | 58 | 1015.6 |
| 20260901224003 | 77 | 352 | 2.0 | 6.0 | 0.00 | 0.13 | 0.12 | 57 | 1015.6 |
| 20260901223503 | 77 | 356 | 2.0 | 6.0 | 0.00 | 0.13 | 0.12 | 57 | 1015.6 |
| 20260901223213 | 77 | 356 | 3.0 | 6.0 | 0.00 | 0.13 | 0.12 | 57 | 1015.6 |
| 20260901222503 | 78 | 6 | 2.0 | 7.0 | 0.00 | 0.14 | 0.12 | 57 | 1015.6 |
| 20260901222003 | 78 | 3 | 2.0 | 5.0 | 0.00 | 0.14 | 0.12 | 57 | 1015.7 |
| 20260901221503 | 78 | 357 | 2.0 | 5.0 | 0.00 | 0.14 | 0.12 | 57 | 1015.7 |
| 20260901221213 | 78 | 1 | 2.0 | 5.0 | 0.00 | 0.14 | 0.12 | 57 | 1015.6 |
| 20260901220503 | 78 | 5 | 2.0 | 5.0 | 0.00 | 0.14 | 0.12 | 56 | 1015.6 |
| 20260901220003 | 79 | 360 | 3.0 | 6.0 | 0.00 | 0.14 | 0.12 | 56 | 1015.5 |
| 20260901215503 | 79 | 3 | 3.0 | 8.0 | 0.00 | 0.14 | 0.12 | 56 | 1015.5 |
| 20260901215213 | 79 | 11 | 4.0 | 8.0 | 0.00 | 0.14 | 0.12 | 56 | 1015.4 |
| 20260901214503 | 79 | 11 | 4.0 | 8.0 | 0.00 | 0.14 | 0.12 | 55 | 1015.5 |
| 20260901214003 | 79 | 356 | 2.0 | 5.0 | 0.00 | 0.14 | 0.12 | 55 | 1015.3 |
| 20260901213503 | 79 | 4 | 1.0 | 5.0 | 0.00 | 0.14 | 0.12 | 55 | 1015.8 |
| 20260901213003 | 80 | 34 | 2.0 | 5.0 | 0.00 | 0.14 | 0.12 | 55 | 1015.3 |
| 20260901212504 | 80 | 18 | 3.0 | 7.0 | 0.00 | 0.14 | 0.12 | 55 | 1015.1 |
| 20260901212003 | 80 | 3 | 3.0 | 8.0 | 0.00 | 0.14 | 0.12 | 54 | 1015.2 |
| 20260901211503 | 80 | 360 | 3.0 | 8.0 | 0.00 | 0.14 | 0.12 | 53 | 1015.1 |
| 20260901211003 | 80 | 357 | 3.0 | 8.0 | 0.00 | 0.14 | 0.12 | 53 | 1015.1 |
| 20260901210503 | 81 | 7 | 4.0 | 9.0 | 0.00 | 0.14 | 0.12 | 53 | 1015.2 |
| 20260901210003 | 81 | 15 | 4.0 | 9.0 | 0.00 | 0.14 | 0.12 | 52 | 1015.1 |
| 20260901205503 | 81 | 354 | 4.0 | 13.0 | 0.00 | 0.14 | 0.12 | 52 | 1015.1 |
| 20260901205003 | 81 | 326 | 4.0 | 13.0 | 0.00 | 0.14 | 0.12 | 51 | 1015.2 |
| 20260901204503 | 81 | 303 | 4.0 | 10.0 | 0.00 | 0.14 | 0.12 | 51 | 1015.2 |
| 20260901204003 | 82 | 347 | 4.0 | 10.0 | 0.00 | 0.14 | 0.12 | 50 | 1015.3 |
| 20260901203503 | 82 | 7 | 3.0 | 10.0 | 0.00 | 0.14 | 0.12 | 51 | 1015.3 |
| 20260901203003 | 82 | 312 | 3.0 | 10.0 | 0.00 | 0.14 | 0.12 | 51 | 1015.3 |
| 20260901202503 | 81 | 271 | 3.0 | 9.0 | 0.00 | 0.14 | 0.12 | 50 | 1015.2 |
| 20260901202003 | 81 | 284 | 2.0 | 8.0 | 0.00 | 0.14 | 0.12 | 49 | 1015.1 |
| 20260901201713 | 81 | 328 | 3.0 | 11.0 | 0.00 | 0.15 | 0.12 | 50 | 1015.1 |
| 20260901201212 | 81 | 322 | 3.0 | 11.0 | 0.00 | 0.15 | 0.12 | 50 | 1015.1 |
| 20260901200503 | 81 | 311 | 3.0 | 8.0 | 0.00 | 0.17 | 0.12 | 50 | 1015.1 |
| 20260901200003 | 81 | 299 | 4.0 | 8.0 | 0.00 | 0.18 | 0.12 | 50 | 1015.1 |
| 20260901195503 | 81 | 283 | 3.0 | 8.0 | 0.00 | 0.18 | 0.12 | 51 | 1015.1 |
| 20260901195003 | 80 | 286 | 3.0 | 8.0 | 0.00 | 0.21 | 0.12 | 52 | 1015.2 |